Location: Gad�tanya
(48.0500°N, 20.8500°E)
Time: 23:14:51
(UTC+00:00)

COSMOS 2455 - Pass Details

Date: 05 July 2020
Orbit: 898 x 911 km, 67.1° (Epoch: 05 August)

Event Time Altitude Azimuth Distance (km) Brightness Sun altitude
Rises 21:41:47 0° 327° (NNW) 3,551 7.3 -18.0°
Reaches altitude 10° 21:44:27 10° 334° (NNW) 2,607 6.4 -18.1°
Maximum altitude 21:50:14 44° 46° (NE) 1,237 3.8 -18.4°
Enters shadow 21:55:18 13° 116° (ESE) 2,366 4.7 -18.5°
